[[{"header":{"parameterUnit":"m.s-1","parameterCategory":1,"la1":30.2992,"la2":30.254,"lo1":-89.0895,"lo2":-89.0443,"dy":0.0025,"dx":0.0025,"nx":19,"ny":19,"refTime":"2026-04-20T09:00:00:Z","depth":0,"parameterNumber":2,"parameterNumberName":"U-component_of_WINDS"},"data":[0,0,0,-2.4037,-2.4041,-2.4202,-2.4202,-2.4432,-2.4435,0,0,0,0,0,0,0,0,0,0,0,-2.4005,-2.4007,-2.4037,-2.4041,-2.4202,-2.4202,-2.4432,-2.4435,0,0,0,0,0,0,0,0,0,0,0,-2.4004,-2.4007,-2.4009,-2.4042,-2.4202,-2.4202,-2.4431,-2.4301,0,0,0,0,0,0,0,0,0,0,-2.4141,-2.4127,-2.4006,-2.4009,-2.4043,-2.4202,-2.4203,-2.4295,-2.431,-2.437,0,-2.4429,0,-2.4436,-2.4452,-2.4453,0,0,0,-2.403,-2.4114,-2.4144,-2.401,-2.4045,-2.4201,-2.4126,-2.4303,-2.432,-2.439,-2.4432,-2.444,-2.4439,-2.4453,-2.4455,-2.4845,-2.4848,0,0,-2.4021,-2.4042,-2.4132,-2.4155,-2.4133,-2.4121,-2.4131,-2.4312,-2.4359,-2.4433,-2.4445,-2.4443,-2.4455,-2.4457,-2.4843,-2.4846,0,0,0,-2.4003,-2.4037,-2.4061,-2.4147,-2.4174,-2.4126,-2.4138,-2.4351,-2.4357,-2.4447,-2.4446,-2.4457,-2.446,-2.4841,-2.4844,-2.4985,0,0,0,-2.3997,-2.4026,-2.4058,-2.4072,-2.4171,-2.4265,-2.4173,-2.4345,-2.4365,-2.4445,-2.4457,-2.4462,-2.4838,-2.4843,-2.4976,-2.505,0,0,0,-2.3989,-2.4025,-2.4053,-2.4073,-2.4143,-2.4261,-2.4277,-2.4348,-2.4365,-2.4453,-2.4463,-2.4836,-2.4842,-2.4967,-2.5036,-2.5163,0,0,0,-2.3987,-2.4175,-2.4056,-2.4265,-2.4142,-2.4346,-2.4276,-2.4426,-2.4518,-2.4458,-2.4838,-2.4844,-2.4965,-2.5027,-2.5154,-2.5277,-2.5329,0,0,-2.4236,-2.4205,-2.4327,-2.4225,-2.4457,-2.432,-2.4571,-2.4635,-2.4622,-2.4772,-2.4781,-2.4979,-2.5035,-2.5161,-2.5603,-2.5645,0,0,0,-2.4413,-2.4502,-2.4558,-2.4647,-2.47,-2.4752,-2.4774,-2.4798,-2.4924,-2.4703,-2.5055,-2.5088,-2.5161,-2.5219,-2.5255,-2.5318,-2.487,-2.4869,-2.4869,-2.48,-2.4774,-2.4975,-2.4969,-2.5056,-2.5077,-2.5146,-2.5181,-2.5128,-2.5212,-2.5258,-2.553,-2.5599,-2.5625,-2.5691,-2.5316,-2.5317,-2.5317,-2.5318,-2.5167,-2.529,-2.5215,-2.5384,-2.5356,-2.5496,-2.5523,-2.5481,-2.5609,-2.5492,-2.5555,-2.5436,-2.5671,-2.5728,-2.5328,-2.5326,-2.5325,-2.5324,-2.5323,-2.5423,-2.5478,-2.5502,-2.5629,-2.5729,-2.5714,-2.5841,-2.5808,-2.5779,-2.5841,-2.5889,-2.5887,-2.5885,-2.5865,-2.5866,-2.5867,-2.5867,-2.5868,-2.5869,-2.5681,-2.5703,-2.5815,-2.5886,-2.594,-2.6006,-2.6027,-2.6079,-2.6128,-2.6095,-2.6095,-2.6038,-2.5697,-2.5615,-2.5883,-2.5881,-2.5879,-2.5877,-2.5876,-2.6073,-2.5979,-2.6151,-2.6205,-2.6287,-2.639,-2.6345,-2.6453,-2.649,-2.6554,-2.6481,-2.6233,-2.62,-2.6172,-2.6105,-2.6483,-2.6483,-2.6483,-2.6483,-2.6293,-2.6271,-2.6442,-2.653,-2.6612,-2.6589,-2.6786,-2.6804,-2.6807,-2.6829,-2.6767,-2.6673,-2.6645,-2.6629,-2.6591,-2.6528,-2.7006,-2.7007,-2.7007,-2.6536,-2.652,-2.6696,-2.6698,-2.6758,-2.6812,-2.6997,-2.7101,-2.7084,-2.7028,-2.6846,-2.6824,-2.6672,-2.6622,-2.6569,-2.651,-2.6394,0,0]},{"header":{"parameterUnit":"m.s-1","parameterCategory":1,"la1":30.2992,"la2":30.254,"lo1":-89.0895,"lo2":-89.0443,"dy":0.0025,"dx":0.0025,"nx":19,"ny":19,"refTime":"2026-04-20T09:00:00:Z","depth":0,"parameterNumber":3,"parameterNumberName":"V-component_of_WINDS"},"data":[0,0,0,-4.8057,-4.8061,-4.8234,-4.8235,-4.8461,-4.8464,0,0,0,0,0,0,0,0,0,0,0,-4.8012,-4.8014,-4.8057,-4.8061,-4.8234,-4.8235,-4.8461,-4.8464,0,0,0,0,0,0,0,0,0,0,0,-4.8011,-4.8013,-4.8015,-4.8062,-4.8234,-4.8235,-4.8461,-4.8327,0,0,0,0,0,0,0,0,0,0,-4.8157,-4.8123,-4.8013,-4.8016,-4.8063,-4.8234,-4.8235,-4.8321,-4.8336,-4.8386,0,-4.8436,0,-4.8454,-4.8479,-4.848,0,0,0,-4.8055,-4.8111,-4.8152,-4.8016,-4.8065,-4.8234,-4.8155,-4.8329,-4.8346,-4.8406,-4.8439,-4.8447,-4.8457,-4.8481,-4.8482,-4.8799,-4.8801,0,0,-4.8046,-4.8046,-4.8141,-4.8164,-4.8141,-4.8149,-4.816,-4.8339,-4.8374,-4.844,-4.8452,-4.8461,-4.8482,-4.8484,-4.8798,-4.88,0,0,0,-4.8022,-4.8039,-4.8076,-4.8155,-4.8186,-4.8154,-4.8167,-4.8366,-4.8378,-4.8455,-4.8464,-4.8484,-4.8487,-4.8796,-4.8798,-4.8886,0,0,0,-4.8016,-4.8026,-4.8072,-4.8074,-4.8183,-4.8279,-4.819,-4.8365,-4.8386,-4.8463,-4.8484,-4.8489,-4.8794,-4.8797,-4.888,-4.8927,0,0,0,-4.7998,-4.8023,-4.8051,-4.8073,-4.8149,-4.8276,-4.8298,-4.837,-4.8392,-4.848,-4.849,-4.8793,-4.8797,-4.8874,-4.8917,-4.901,0,0,0,-4.7978,-4.8125,-4.8052,-4.8219,-4.8147,-4.833,-4.8297,-4.8432,-4.8519,-4.8485,-4.8794,-4.8798,-4.8872,-4.8912,-4.9004,-4.9089,-4.9125,0,0,-4.8164,-4.8148,-4.8246,-4.8186,-4.8382,-4.8303,-4.8511,-4.8588,-4.8595,-4.873,-4.8738,-4.8882,-4.8917,-4.9009,-4.9323,-4.9352,0,0,0,-4.8304,-4.8375,-4.8427,-4.8511,-4.8575,-4.8634,-4.868,-4.8708,-4.8823,-4.8666,-4.894,-4.8961,-4.9015,-4.9056,-4.908,-4.9126,-4.8817,-4.8817,-4.8816,-4.8566,-4.8569,-4.8731,-4.8755,-4.8836,-4.8882,-4.8947,-4.8993,-4.897,-4.9035,-4.9075,-4.9266,-4.9313,-4.9331,-4.9379,-4.912,-4.912,-4.9121,-4.9121,-4.8837,-4.8937,-4.8905,-4.9051,-4.9051,-4.9172,-4.9222,-4.9201,-4.9312,-4.9236,-4.9284,-4.92,-4.9362,-4.9404,-4.9128,-4.9126,-4.9126,-4.9125,-4.9124,-4.9009,-4.9057,-4.9091,-4.9212,-4.9304,-4.9321,-4.9429,-4.9425,-4.9422,-4.9469,-4.951,-4.9509,-4.9506,-4.9489,-4.949,-4.949,-4.9491,-4.9491,-4.9492,-4.9173,-4.9208,-4.9302,-4.9383,-4.9436,-4.9504,-4.9551,-4.9602,-4.9656,-4.9644,-4.9645,-4.9615,-4.9378,-4.9319,-4.9502,-4.95,-4.9499,-4.9498,-4.9497,-4.9447,-4.9384,-4.9529,-4.9583,-4.9676,-4.9766,-4.976,-4.9863,-4.9904,-4.9957,-4.9917,-4.9743,-4.9726,-4.9707,-4.9657,-4.9917,-4.9917,-4.9917,-4.9917,-4.9592,-4.9583,-4.973,-4.9815,-4.9897,-4.9906,-5.0066,-5.0103,-5.013,-5.0155,-5.0117,-5.0051,-5.0031,-5.0025,-4.9999,-4.9953,-5.0282,-5.0283,-5.0283,-4.976,-4.9758,-4.9898,-4.9927,-4.9999,-5.006,-5.021,-5.0306,-5.0324,-5.0298,-5.0174,-5.0159,-5.0052,-5.0018,-4.9989,-4.9949,-4.9864,0,0]}]]